When you browse on this site, cookies collect data to enhance your experience and personalize the content and advertising you see.
Visit our Privacy Policy to learn more. By continuing to use the site, you agree to this use of cookies and data.
  • In Germany
  • List of Countries
  • For 7 days
  • Water Temperature
  • Satellite Maps
  • Weather Map
  • Weather Widgets
  • user-avatar
    Login

    Hourly Weather Hobart

    Today, 22 January, Tuesday

    Time Temperature Precipitation Wind Pressure Humidity
    00:00 +15°C° 0 mm 1 mps 746 mmHg 79%
    01:00 +14°C° 0 mm 1 mps 746 mmHg 80%
    02:00 +14°C° 0 mm 1 mps 746 mmHg 79%
    03:00 +14°C° 0 mm 1 mps 745 mmHg 79%
    04:00 +12°C° 0 mm 1 mps 745 mmHg 88%
    05:00 +14°C° 0 mm 1 mps 745 mmHg 79%
    06:00 +16°C° 0 mm 1 mps 745 mmHg 70%
    07:00 +18°C° 0 mm 1 mps 745 mmHg 61%
    08:00 +22°C° 0 mm 1 mps 745 mmHg 53%
    09:00 +25°C° 0 mm 1 mps 745 mmHg 45%
    10:00 +27°C° 0 mm 1 mps 745 mmHg 39%
    11:00 +29°C° 0 mm 2 mps 745 mmHg 35%
    12:00 +31°C° 0 mm 2 mps 745 mmHg 31%
    13:00 +32°C° 0 mm 2 mps 744 mmHg 26%
    14:00 +33°C° 0 mm 3 mps 744 mmHg 28%
    15:00 +31°C° 0 mm 3 mps 744 mmHg 30%
    16:00 +30°C° 0 mm 3 mps 743 mmHg 32%
    17:00 +28°C° 0 mm 3 mps 743 mmHg 39%
    18:00 +26°C° 0 mm 2 mps 743 mmHg 46%
    19:00 +24°C° 0 mm 2 mps 743 mmHg 53%
    20:00 +21°C° 0 mm 2 mps 743 mmHg 63%
    21:00 +20°C° 0 mm 1 mps 743 mmHg 73%
    22:00 +16°C° 0 mm 1 mps 743 mmHg 83%
    23:00 +17°C° 0.1 mm 2 mps 744 mmHg 83%

    Tomorrow, 23 January, Wednesday

    Time Temperature Precipitation Wind Pressure Humidity
    00:00 +17°C° 0.1 mm 2 mps 745 mmHg 83%
    01:00 +17°C° 0.1 mm 3 mps 745 mmHg 83%
    02:00 +15°C° 0.1 mm 4 mps 746 mmHg 83%
    03:00 +13°C° 0.1 mm 4 mps 746 mmHg 84%
    04:00 +12°C° 0.1 mm 5 mps 747 mmHg 85%
    05:00 +12°C° 0 mm 4 mps 748 mmHg 81%
    06:00 +12°C° 0 mm 4 mps 748 mmHg 77%
    07:00 +11°C° 0 mm 4 mps 749 mmHg 73%
    08:00 +13°C° 0 mm 3 mps 749 mmHg 64%
    09:00 +14°C° 0 mm 3 mps 750 mmHg 55%
    10:00 +16°C° 0 mm 3 mps 750 mmHg 45%
    11:00 +18°C° 0 mm 3 mps 750 mmHg 41%
    12:00 +19°C° 0 mm 3 mps 750 mmHg 38%
    13:00 +20°C° 0 mm 3 mps 751 mmHg 34%
    14:00 +20°C° 0 mm 3 mps 750 mmHg 36%
    15:00 +19°C° 0 mm 4 mps 750 mmHg 37%
    16:00 +19°C° 0 mm 4 mps 750 mmHg 39%
    17:00 +17°C° 0 mm 3 mps 751 mmHg 45%
    18:00 +16°C° 0 mm 3 mps 751 mmHg 51%
    19:00 +14°C° 0 mm 2 mps 751 mmHg 56%
    20:00 +13°C° 0 mm 2 mps 752 mmHg 64%
    21:00 +12°C° 0 mm 2 mps 752 mmHg 71%
    22:00 +10°C° 0 mm 1 mps 752 mmHg 78%
    23:00 +10°C° 0 mm 1 mps 752 mmHg 80%

    Day after tomorrow, 24 January, Thursday

    Time Temperature Precipitation Wind Pressure Humidity
    00:00 +10°C° 0 mm 1 mps 752 mmHg 81%
    01:00 +9°C° 0 mm 1 mps 752 mmHg 83%
    02:00 +9°C° 0 mm 1 mps 751 mmHg 84%
    03:00 +9°C° 0 mm 1 mps 751 mmHg 85%
    04:00 +9°C° 0 mm 1 mps 751 mmHg 86%
    05:00 +10°C° 0 mm 2 mps 751 mmHg 79%
    06:00 +12°C° 0 mm 2 mps 751 mmHg 72%
    07:00 +14°C° 0 mm 2 mps 751 mmHg 65%
    08:00 +17°C° 0 mm 2 mps 751 mmHg 56%
    09:00 +19°C° 0 mm 2 mps 750 mmHg 47%
    10:00 +23°C° 0 mm 2 mps 750 mmHg 39%
    11:00 +25°C° 0 mm 3 mps 750 mmHg 36%
    12:00 +26°C° 0 mm 4 mps 749 mmHg 33%
    13:00 +28°C° 0 mm 4 mps 749 mmHg 31%
    14:00 +28°C° 0 mm 5 mps 748 mmHg 31%
    15:00 +29°C° 0 mm 5 mps 747 mmHg 31%
    16:00 +29°C° 0 mm 5 mps 747 mmHg 31%
    17:00 +28°C° 0 mm 5 mps 746 mmHg 35%
    18:00 +27°C° 0 mm 5 mps 746 mmHg 38%
    19:00 +26°C° 0 mm 5 mps 746 mmHg 41%
    20:00 +23°C° 0 mm 5 mps 745 mmHg 45%
    21:00 +22°C° 0 mm 5 mps 745 mmHg 49%
    22:00 +20°C° 0 mm 4 mps 744 mmHg 53%
    23:00 +20°C° 0 mm 4 mps 743 mmHg 52%

    25 January, Friday

    Time Temperature Precipitation Wind Pressure Humidity
    00:00 +20°C° 0 mm 4 mps 742 mmHg 51%
    01:00 +19°C° 0 mm 4 mps 741 mmHg 50%
    02:00 +20°C° 0 mm 5 mps 741 mmHg 46%
    03:00 +21°C° 0 mm 5 mps 740 mmHg 42%
    04:00 +23°C° 0 mm 5 mps 739 mmHg 38%
    05:00 +26°C° 0 mm 5 mps 739 mmHg 35%
    06:00 +28°C° 0 mm 5 mps 739 mmHg 33%
    07:00 +30°C° 0 mm 5 mps 739 mmHg 30%
    08:00 +33°C° 0 mm 5 mps 739 mmHg 29%
    09:00 +35°C° 0 mm 6 mps 739 mmHg 27%
    10:00 +38°C° 0 mm 6 mps 739 mmHg 25%
    11:00 +39°C° 0 mm 6 mps 738 mmHg 25%
    12:00 +40°C° 0 mm 6 mps 738 mmHg 25%
    13:00 +41°C° 0 mm 6 mps 738 mmHg 24%
    14:00 +40°C° 0 mm 5 mps 737 mmHg 25%
    15:00 +37°C° 0 mm 5 mps 737 mmHg 26%
    16:00 +36°C° 0 mm 4 mps 737 mmHg 26%
    17:00 +33°C° 0 mm 3 mps 737 mmHg 32%
    18:00 +29°C° 0 mm 2 mps 737 mmHg 37%
    19:00 +27°C° 0 mm 2 mps 737 mmHg 43%
    20:00 +24°C° 0 mm 2 mps 738 mmHg 48%
    21:00 +21°C° 0 mm 2 mps 738 mmHg 54%
    22:00 +19°C° 0 mm 2 mps 739 mmHg 59%
    23:00 +19°C° 0 mm 2 mps 739 mmHg 63%

    26 January, Saturday

    Time Temperature Precipitation Wind Pressure Humidity
    00:00 +19°C° 0 mm 2 mps 740 mmHg 67%
    01:00 +18°C° 0 mm 2 mps 740 mmHg 71%
    02:00 +18°C° 0 mm 2 mps 740 mmHg 71%
    03:00 +17°C° 0 mm 2 mps 741 mmHg 71%
    04:00 +17°C° 0 mm 2 mps 741 mmHg 70%
    05:00 +17°C° 0 mm 2 mps 741 mmHg 69%
    06:00 +17°C° 0 mm 2 mps 742 mmHg 67%
    07:00 +17°C° 0 mm 2 mps 742 mmHg 65%
    08:00 +18°C° 0 mm 2 mps 742 mmHg 58%
    09:00 +20°C° 0 mm 2 mps 743 mmHg 51%
    10:00 +23°C° 0 mm 2 mps 743 mmHg 44%
    11:00 +25°C° 0 mm 2 mps 742 mmHg 39%
    12:00 +27°C° 0 mm 2 mps 742 mmHg 34%
    13:00 +30°C° 0 mm 2 mps 741 mmHg 30%
    14:00 +27°C° 0 mm 3 mps 741 mmHg 41%
    15:00 +22°C° 0 mm 4 mps 740 mmHg 52%
    16:00 +19°C° 0 mm 4 mps 739 mmHg 63%
    17:00 +18°C° 0 mm 4 mps 739 mmHg 70%
    18:00 +17°C° 0 mm 3 mps 739 mmHg 78%
    19:00 +15°C° 0 mm 2 mps 739 mmHg 85%
    20:00 +15°C° 0.1 mm 2 mps 739 mmHg 86%
    21:00 +14°C° 0.1 mm 3 mps 739 mmHg 87%
    22:00 +14°C° 0.1 mm 3 mps 739 mmHg 87%
    23:00 +13°C° 0 mm 3 mps 738 mmHg 86%

    27 January, Sunday

    Time Temperature Precipitation Wind Pressure Humidity
    00:00 +13°C° 0 mm 2 mps 738 mmHg 84%
    01:00 +12°C° 0 mm 2 mps 737 mmHg 82%
    02:00 +12°C° 0 mm 2 mps 738 mmHg 80%
    03:00 +12°C° 0 mm 3 mps 738 mmHg 78%
    04:00 +12°C° 0 mm 3 mps 738 mmHg 76%
    05:00 +13°C° 0 mm 3 mps 738 mmHg 71%
    06:00 +14°C° 0 mm 4 mps 738 mmHg 66%
    07:00 +16°C° 0 mm 5 mps 739 mmHg 61%
    08:00 +16°C° 0.1 mm 5 mps 739 mmHg 58%
    09:00 +17°C° 0.1 mm 5 mps 739 mmHg 56%
    10:00 +17°C° 0.1 mm 5 mps 739 mmHg 53%
    11:00 +17°C° 0.1 mm 6 mps 739 mmHg 53%
    12:00 +17°C° 0.1 mm 6 mps 739 mmHg 53%
    13:00 +16°C° 0.1 mm 6 mps 739 mmHg 53%
    14:00 +16°C° 0 mm 6 mps 739 mmHg 52%
    15:00 +16°C° 0 mm 6 mps 739 mmHg 50%
    16:00 +16°C° 0 mm 6 mps 739 mmHg 48%
    17:00 +16°C° 0 mm 6 mps 739 mmHg 50%
    18:00 +15°C° 0 mm 6 mps 739 mmHg 52%
    19:00 +15°C° 0 mm 6 mps 740 mmHg 55%
    20:00 +14°C° 0 mm 5 mps 740 mmHg 59%
    21:00 +13°C° 0 mm 4 mps 740 mmHg 63%
    22:00 +12°C° 0 mm 3 mps 741 mmHg 67%
    23:00 +12°C° 0 mm 3 mps 740 mmHg 67%
    Show more